Location: Calvera
(42.3882°N, 0.6137°E)
Time: 19:45:37
(UTC+00:00)

Cosmos 1980 Rocket - Pass Details

Date: 28 October 2020
Orbit: 831 x 848 km, 71.0° (Epoch: 22 November)

Event Time Altitude Azimuth Distance (km) Brightness Sun altitude
Exits shadow 04:36:36 - 338° (NNW) 3,053 4.9 -20.8°
Reaches altitude 10° 04:38:12 10° 340° (NNW) 2,446 4.4 -20.5°
Maximum altitude 04:43:47 68° 64° (ENE) 893 2.5 -19.5°
Drops below altitude 10° 04:49:21 10° 147° (SSE) 2,435 5.0 -18.4°
Sets 04:51:48 0° 150° (SSE) 3,367 5.8 -18.0°
